Location: ?????????
(41.2393°N, 22.9479°E)
Time: 21:00:42
(UTC+00:00)

Nadezhda 4 Rocket - Pass Details

Date: 17 November 2025
Orbit: 948 x 991 km, 82.9° (Epoch: 11 December)

Event Time Altitude Azimuth Distance (km) Brightness Sun altitude
Rises 16:28:48 0° 356° (N) 3,700 6.9 -15.3°
Reaches altitude 10° 16:31:24 10° 1° (N) 2,743 6.2 -15.8°
Maximum altitude 16:37:35 57° 79° (E) 1,141 4.0 -16.9°
Drops below altitude 10° 16:43:38 10° 157° (SSE) 2,696 6.2 -18.1°
Sets 16:46:10 0° 162° (SSE) 3,633 6.9 -18.5°
